Weather History for Burlington, VT

Change the Weather History Date:

Thursday, January 31, 2013

  Actual Average Record
Temperature  
Mean Temperature 40 °F 19 °F  
Max Temperature 56 °F 28 °F 56 °F (1988)
Min Temperature 24 °F 10 °F -27 °F (1920)
Degree Days  
Heating Degree Days 25 46  
Month to date heating degree days 1331 1438  
Since 1 July heating degree days 3736 4194  
Cooling Degree Days 0 0  
Month to date cooling degree days 0 0  
Year to date cooling degree days 0 0  
Moisture  
Dew Point 35 °F    
Average Humidity 67    
Maximum Humidity 96    
Minimum Humidity 38    
Precipitation  
Precipitation 0.28 in 0.07 in 0.67 in (1982)
Month to date precipitation 1.11 2.06  
Year to date precipitation 1.11 2.06  
Snow  
Snow T in 0.70 in 8.30 in (1993)
Month to date snowfall 14.6 21.1  
Since 1 July snowfall 49.1 44.4  
Snow Depth 0.00 in    
Sea Level Pressure  
Sea Level Pressure 29.12 in    
Wind  
Wind Speed 16 mph (SW)    
Max Wind Speed 29 mph    
Max Gust Speed 48 mph    
Visibility 9 miles    
Events Rain , Snow    
T = Trace of Precipitation, MM = Missing Value Source: NWS Daily Summary

Daily Weather History Graph

Daily Weather History Graph

Search for Another Location

Airport:

Trip Planner

Search our weather history database for the weather conditions in past years. The results will help you decide how hot, cold, wet, or windy it might be!

Date:

Astronomy

Jan. 31, 2013 Rise Set
Actual Time 7:11 AM EST 5:00 PM EST
Civil Twilight 6:40 AM EST 5:31 PM EST
Nautical Twilight 6:06 AM EST 6:06 PM EST
Astronomical Twilight 5:31 AM EST 6:40 PM EST
Moon 10:14 PM EST (1/31) 8:56 AM EST (1/31)
Length of Visible Light 10h 50m
Length of Day
9h 48m
Waning Gibbous, 80% of the Moon is Illuminated
Jan 31
Waning Gibbous
Feb 3
Last Quarter
Feb 10
New
Feb 17
First Quarter
Feb 25
Full

Hourly Weather History & Observations

Time (EST) Temp. Windchill Dew Point Humidity Pressure Visibility Wind Dir Wind Speed Gust Speed Precip Events Conditions
12:21 AM 55.4 °F - 53.6 °F 94% 29.21 in 9.0 mi South 13.8 mph 32.2 mph 0.01 in Rain Light Rain
12:27 AM 55.4 °F - 53.6 °F 94% 29.21 in 10.0 mi South 13.8 mph 24.2 mph 0.02 in Rain Light Rain
12:51 AM 55.4 °F - 53.6 °F 94% 29.18 in 9.0 mi South 12.7 mph 21.9 mph 0.03 in Rain Light Rain
12:54 AM 55.9 °F - 53.1 °F 90% 29.19 in 8.0 mi South 13.8 mph 20.7 mph 0.03 in Rain Light Rain
1:50 AM 55.4 °F - 53.6 °F 94% 29.11 in 10.0 mi South 13.8 mph 24.2 mph 0.04 in Rain Light Rain
1:54 AM 55.9 °F - 53.1 °F 90% 29.11 in 10.0 mi South 12.7 mph 23.0 mph 0.04 in Rain Light Rain
2:01 AM 55.4 °F - 51.8 °F 88% 29.10 in 10.0 mi South 10.4 mph - 0.00 in Rain Light Rain
2:54 AM 54.0 °F - 52.0 °F 93% 29.03 in 10.0 mi SSE 3.5 mph - 0.04 in Rain Light Rain
3:54 AM 53.1 °F - 51.1 °F 93% 28.97 in 9.0 mi South 10.4 mph - 0.03 in Rain Light Rain
3:56 AM 53.6 °F - 51.8 °F 94% 28.96 in 9.0 mi South 9.2 mph - 0.00 in Rain Light Rain
4:19 AM 50.0 °F - 48.2 °F 94% 28.93 in 1.8 mi East 3.5 mph - 0.01 in Rain Light Rain
4:27 AM 50.0 °F - 48.2 °F 94% 28.91 in 1.2 mi East 5.8 mph - 0.01 in Rain Light Rain
4:31 AM 50.0 °F - 48.2 °F 94% 28.91 in 2.0 mi ESE 5.8 mph - 0.01 in Rain Light Rain
4:38 AM 48.2 °F - 46.4 °F 93% 28.88 in 8.0 mi ESE 9.2 mph - 0.01 in Rain Light Rain
4:54 AM 52.0 °F - 50.0 °F 93% 28.88 in 10.0 mi SSE 9.2 mph - 0.01 in Rain Light Rain
5:25 AM 53.6 °F - 51.8 °F 94% 28.90 in 10.0 mi SSW 11.5 mph - 0.02 in Rain Light Rain
5:54 AM 54.0 °F - 51.1 °F 90% 28.85 in 10.0 mi South 11.5 mph 21.9 mph 0.05 in Rain Light Rain
6:19 AM 53.6 °F - 51.8 °F 94% 28.85 in 10.0 mi South 17.3 mph 24.2 mph 0.01 in Rain Light Rain
6:52 AM 53.6 °F - 50.0 °F 88% 28.83 in 10.0 mi West 16.1 mph 24.2 mph 0.02 in   Overcast
6:54 AM 52.0 °F - 48.9 °F 89% 28.83 in 10.0 mi WNW 18.4 mph 25.3 mph 0.02 in   Overcast
7:04 AM 46.4 °F 39.0 °F 44.6 °F 93% 28.88 in 3.0 mi WNW 19.6 mph 33.4 mph 0.02 in Rain Rain
7:11 AM 46.4 °F 39.2 °F 42.8 °F 87% 28.89 in 2.5 mi WNW 18.4 mph 33.4 mph 0.04 in Rain Rain
7:14 AM 46.4 °F 39.8 °F 41.0 °F 81% 28.89 in 3.0 mi West 16.1 mph 26.5 mph 0.05 in Rain Light Rain
7:54 AM 46.9 °F - 37.0 °F 68% 28.90 in 10.0 mi WNW 13.8 mph 20.7 mph 0.06 in   Mostly Cloudy
8:54 AM 43.0 °F 36.4 °F 32.0 °F 65% 29.00 in 10.0 mi SW 12.7 mph 20.7 mph 0.00 in Rain Light Rain
9:54 AM 39.9 °F 32.5 °F 30.0 °F 68% 29.06 in 10.0 mi West 12.7 mph 32.2 mph 0.00 in Rain Light Rain
10:54 AM 39.0 °F 30.3 °F 21.9 °F 50% 29.11 in 10.0 mi West 16.1 mph 33.4 mph 0.00 in   Mostly Cloudy
11:54 AM 39.0 °F 29.0 °F 19.9 °F 46% 29.12 in 10.0 mi West 20.7 mph 35.7 mph N/A   Mostly Cloudy
12:54 PM 36.0 °F 25.0 °F 19.0 °F 50% 29.16 in 10.0 mi WSW 20.7 mph 39.1 mph N/A   Mostly Cloudy
1:54 PM 36.0 °F 24.4 °F 17.1 °F 46% 29.19 in 10.0 mi WSW 23.0 mph 31.1 mph N/A   Mostly Cloudy
2:54 PM 32.0 °F 20.5 °F 23.0 °F 69% 29.25 in 8.0 mi West 18.4 mph 25.3 mph 0.00 in Snow Light Snow
3:54 PM 33.1 °F 21.2 °F 17.1 °F 52% 29.31 in 10.0 mi WSW 20.7 mph 29.9 mph 0.00 in Snow Light Snow
4:54 PM 32.0 °F 21.2 °F 12.0 °F 44% 29.34 in 10.0 mi SW 16.1 mph 31.1 mph 0.00 in   Mostly Cloudy
5:54 PM 30.0 °F 18.7 °F 10.9 °F 45% 29.38 in 10.0 mi West 16.1 mph 28.8 mph 0.00 in   Overcast
6:54 PM 30.0 °F 16.9 °F 8.1 °F 40% 29.42 in 10.0 mi West 21.9 mph 34.5 mph N/A   Overcast
7:54 PM 28.0 °F 15.7 °F 6.1 °F 39% 29.47 in 10.0 mi West 17.3 mph 36.8 mph N/A   Overcast
8:54 PM 26.1 °F 12.3 °F 5.0 °F 41% 29.49 in 10.0 mi West 19.6 mph 33.4 mph N/A   Mostly Cloudy
9:54 PM 25.0 °F 12.6 °F 5.0 °F 43% 29.51 in 10.0 mi West 15.0 mph 27.6 mph N/A   Partly Cloudy
10:54 PM 24.1 °F 13.1 °F 5.0 °F 44% 29.53 in 10.0 mi West 11.5 mph 23.0 mph N/A   Scattered Clouds
11:54 PM 24.1 °F 10.6 °F 5.0 °F 44% 29.54 in 10.0 mi West 17.3 mph 29.9 mph N/A   Mostly Cloudy